Location: Plymouth
(43.7570°N, 71.6890°W)
Time: 23:34:35
(UTC-05:00)

Amateur Radio Satellites - All Passes

Search period start: 12 February 2016 23:04
Search period end: 13 February 2016 23:04
Location: Plymouth, 43.7570°N, 71.6890°W

Satellite Date Start Highest point End Downlink Frequencies (MHz)
Time Altitude Azimuth
POLYITAN 1 12 Feb 23:05:41 23:09:52 62° 101° (E) 23:14:02 437.675
CUSAT 1 12 Feb 23:05:43 23:08:37 12° 77° (ENE) 23:11:28 437.405
QB50P2 12 Feb 23:06:10 23:10:22 65° 102° (ESE) 23:14:32 145.880/145.840
BEESAT 2 12 Feb 23:11:53 23:12:57 11° 33° (NNE) 23:14:01 435.950
Cosmos 2491 12 Feb 23:19:46 23:23:12 13° 52° (NE) 23:26:38 435.465 / 435.565
VELOX 1 12 Feb 23:21:31 23:25:08 24° 265° (W) 23:28:46 145.980
SWISSCUBE 12 Feb 23:32:15 23:34:47 14° 59° (ENE) 23:37:17 437.505
TISAT 1 12 Feb 23:32:23 23:36:31 55° 73° (ENE) 23:40:39 437.305
UNISAT 6 12 Feb 23:32:52 23:35:58 19° 295° (WNW) 23:39:06 437.425
UKube-1 12 Feb 23:33:55 23:36:59 19° 267° (W) 23:40:04 .
POPSAT HIP 1 12 Feb 23:35:06 23:39:16 64° 286° (WNW) 23:43:25 437.405
SPROUT 12 Feb 23:36:05 23:40:15 50° 260° (W) 23:44:28 437.525
DUCHIFAT 1 12 Feb 23:37:38 23:41:47 64° 286° (WNW) 23:45:55 145.980
NANOSAT C BR1 12 Feb 23:37:43 23:41:52 61° 287° (WNW) 23:45:59 145.865
AISAT 12 Feb 23:39:59 23:42:38 15° 269° (W) 23:45:19 437.250
QB50P1 12 Feb 23:47:33 23:51:35 46° 288° (WNW) 23:55:36 145.935-145.965
CUBEBUG 1 12 Feb 23:50:08 23:52:41 15° 269° (W) 23:55:15 437.445
DX 1 12 Feb 23:54:30 23:55:15 10° 271° (W) 23:56:01 434.975-435.025
DANDE 13 Feb 00:03:12 00:08:59 22° 80° (E) 00:14:56 436.750
ITUPSAT 1 13 Feb 00:09:03 00:13:04 28° 66° (ENE) 00:17:07 437.325
PHONESAT 2.4 13 Feb 00:09:48 00:12:48 33° 166° (SSE) 00:15:49 2401.200-2431.200
BEESAT 13 Feb 00:15:05 00:19:16 32° 67° (ENE) 00:23:29 436.000
BEESAT 3 13 Feb 00:17:25 00:21:17 47° 51° (NE) 00:25:06 437.485
BUGSAT 1 13 Feb 00:25:24 00:29:05 35° 290° (WNW) 00:32:44 437.445
Oscar 19 13 Feb 00:28:09 00:32:24 26° 94° (E) 00:36:39 437.125/150
JAS-2 13 Feb 00:29:22 00:33:13 19° 90° (E) 00:36:55 435.910
CUSAT 1 13 Feb 00:41:36 00:49:31 61° 94° (E) 00:57:12 437.405
POLYITAN 1 13 Feb 00:43:07 00:45:12 14° 298° (WNW) 00:47:17 437.675
QB50P2 13 Feb 00:43:42 00:45:40 13° 299° (WNW) 00:47:37 145.880/145.840
BEESAT 2 13 Feb 00:47:40 00:51:39 63° 53° (NE) 00:55:36 435.950
KKS-1 13 Feb 01:02:28 01:04:47 14° 61° (ENE) 01:07:05 437.445
SWISSCUBE 13 Feb 01:07:12 01:11:57 75° 257° (WSW) 01:16:46 437.505
TISAT 1 13 Feb 01:10:22 01:12:31 14° 269° (W) 01:14:40 437.305
Cosmos 2491 13 Feb 01:13:37 01:22:17 59° 77° (ENE) 01:30:54 435.465 / 435.565
Gurwin Techsat 1B 13 Feb 01:25:49 01:30:40 34° 96° (E) 01:35:28 435.225
AIST 2 13 Feb 01:31:47 01:35:11 24° 43° (NE) 01:38:33 435.215
DANDE 13 Feb 01:42:49 01:50:54 89° 281° (WNW) 01:59:25 436.750
ITAMSAT 1 13 Feb 01:44:19 01:48:43 26° 95° (E) 01:53:04 435.822/435.867
ITUPSAT 1 13 Feb 01:46:26 01:50:47 35° 263° (W) 01:55:11 437.325
PHONESAT 2.4 13 Feb 01:46:37 01:49:47 47° 183° (S) 01:52:58 2401.200-2431.200
BEESAT 13 Feb 01:52:52 01:57:02 30° 264° (W) 02:01:14 436.000
BEESAT 3 13 Feb 01:56:07 01:58:41 17° 249° (WSW) 02:01:14 437.485
YUBILEINY 13 Feb 02:03:28 02:11:46 49° 88° (E) 02:20:06 435.215
Oscar 19 13 Feb 02:07:04 02:11:51 41° 292° (WNW) 02:16:36 437.125/150
STARS 13 Feb 02:10:36 02:14:36 36° 69° (ENE) 02:18:37 437.465
JAS-2 13 Feb 02:13:23 02:18:51 54° 290° (WNW) 02:23:55 435.910
CUSAT 1 13 Feb 02:24:58 02:32:10 34° 292° (WNW) 02:39:05 437.405
BEESAT 2 13 Feb 02:27:15 02:29:03 13° 251° (WSW) 02:30:49 435.950
KKS-1 13 Feb 02:36:23 02:40:49 68° 258° (WSW) 02:45:16 437.445
MOZHAYETS 4 13 Feb 02:54:46 02:59:19 72° 75° (ENE) 03:03:54
Gurwin Techsat 1B 13 Feb 03:05:50 03:10:33 33° 294° (WNW) 03:15:16 435.225
AO-7 13 Feb 03:05:51 03:13:40 42° 99° (E) 03:21:24 29.400- 29.500
AIST 2 13 Feb 03:09:56 03:13:51 42° 242° (WSW) 03:17:43 435.215
Cosmos 2491 13 Feb 03:11:12 03:18:35 32° 277° (W) 03:25:59 435.465 / 435.565
Cosmos 2504 13 Feb 03:21:57 03:29:30 35° 84° (E) 03:37:15 435.465 / 435.565
ITAMSAT 1 13 Feb 03:23:24 03:28:19 42° 292° (WNW) 03:33:12 435.822/435.867
PHONESAT 2.4 13 Feb 03:23:56 03:26:43 26° 199° (SSW) 03:29:29 2401.200-2431.200
DANDE 13 Feb 03:28:40 03:34:58 24° 299° (WNW) 03:41:24 436.750
SO-50 13 Feb 03:39:45 03:44:30 53° 120° (ESE) 03:49:21 436.795
CUBESAT XI-V 13 Feb 03:45:44 03:49:41 28° 67° (ENE) 03:53:40 437.345
STARS 13 Feb 03:47:36 03:51:04 22° 266° (W) 03:54:33 437.465
HORYU 2 13 Feb 03:53:29 03:57:41 39° 98° (E) 04:01:52 437.375
YUBILEINY 13 Feb 04:00:36 04:08:42 40° 289° (WNW) 04:16:55 435.215
M-CUBED/EXP-1 PRIME 13 Feb 04:31:10 04:34:36 79° 288° (WNW) 04:38:15 437.505
MOZHAYETS 4 13 Feb 04:35:16 04:37:00 12° 272° (W) 04:38:45
AUBIESAT-1 13 Feb 04:37:44 04:41:14 80° 288° (WNW) 04:44:56 437.475
AO-7 13 Feb 04:58:39 05:06:31 48° 298° (WNW) 05:14:18 29.400- 29.500
LilacSat-2 13 Feb 05:11:12 05:13:19 14° 91° (E) 05:15:26 437.200
Cosmos 2504 13 Feb 05:13:57 05:22:28 57° 284° (WNW) 05:31:15 435.465 / 435.565
SO-50 13 Feb 05:21:08 05:25:19 27° 318° (NW) 05:29:30 436.795
CUBESAT XI-V 13 Feb 05:22:41 05:26:57 34° 264° (W) 05:31:15 437.345
PRISM 13 Feb 05:25:49 05:26:44 11° 59° (ENE) 05:27:39 437.425
CUTE-I 13 Feb 05:26:56 05:31:40 30° 95° (E) 05:36:22 437.470
HORYU 2 13 Feb 05:30:37 05:34:01 22° 295° (WNW) 05:37:25 437.375
Cubesat XI-IV 13 Feb 05:41:36 05:46:41 41° 98° (E) 05:51:44 437.490
GOMX 1 13 Feb 05:46:59 05:47:20 10° 87° (E) 05:47:40 467.674
STRAND 1 13 Feb 05:51:06 05:56:10 67° 73° (ENE) 06:01:17 437.568
O/OREOS (USA 219) 13 Feb 06:13:58 06:17:34 24° 103° (ESE) 06:21:13 437.305
BRITE-PL 13 Feb 06:34:29 06:39:11 74° 102° (ESE) 06:43:30 437.365/2234.400
LilacSat-2 13 Feb 06:44:16 06:47:51 41° 288° (WNW) 06:51:26 437.200
DOVE 4 13 Feb 06:45:09 06:48:28 22° 94° (E) 06:51:43 437.250
AO-7 13 Feb 06:54:15 06:57:15 12° 321° (NW) 07:00:14 29.400- 29.500
PRISM 13 Feb 06:57:14 07:01:25 82° 258° (WSW) 07:05:38 437.425
CUTE-I 13 Feb 07:06:49 07:11:46 38° 293° (WNW) 07:16:41 437.470
CANX-2 13 Feb 07:11:52 07:15:11 21° 93° (E) 07:18:27 2200.000
CINEMA 3 13 Feb 07:13:17 07:15:46 15° 91° (E) 07:18:16 145.822/145.860
Cosmos 2504 13 Feb 07:14:32 07:18:08 13° 308° (NW) 07:21:47 435.465 / 435.565
HO-68 13 Feb 07:14:41 07:20:52 30° 95° (E) 07:26:59 435.675
GOMX 1 13 Feb 07:21:42 07:26:04 71° 286° (WNW) 07:30:13 467.674
Cubesat XI-IV 13 Feb 07:22:00 07:26:34 29° 296° (WNW) 07:31:08 437.490
GONETS M04 13 Feb 07:29:49 07:37:40 40° 86° (E) 07:45:35
STRAND 1 13 Feb 07:32:47 07:35:49 16° 270° (W) 07:38:54 437.568
COMPASS 1 13 Feb 07:40:48 07:44:04 21° 93° (E) 07:47:18 437.405
O/OREOS (USA 219) 13 Feb 07:52:39 07:56:47 35° 301° (WNW) 08:00:59 437.305
SEEDS 13 Feb 08:01:01 08:05:09 47° 99° (E) 08:09:17 437.485
CUTE 1.7 + AOD 2 13 Feb 08:01:08 08:05:25 64° 100° (E) 08:09:40 437.475
AAUSAT CUBESAT 2 13 Feb 08:05:29 08:09:17 32° 96° (E) 08:13:03 437.432
ANTELSAT 13 Feb 08:06:04 08:08:19 14° 62° (ENE) 08:10:34 437.575/2403.000
Oscar 11 13 Feb 08:08:47 08:11:22 15° 91° (E) 08:13:55 145.826/435.025
TIGRISAT 13 Feb 08:11:23 08:13:52 15° 63° (ENE) 08:16:21 435.000
Cosmos 2499 13 Feb 08:12:06 08:19:44 35° 84° (E) 08:27:25 435.465 / 435.565
BRITE-PL 13 Feb 08:14:52 08:16:57 13° 301° (WNW) 08:18:59 437.365/2234.400
DOVE 4 13 Feb 08:22:32 08:26:16 31° 291° (WNW) 08:29:55 437.250
UWE-3 13 Feb 08:24:04 08:27:33 24° 95° (E) 08:31:04 435.000/436.395/437.385
CUBEBUG 2 13 Feb 08:30:52 08:34:50 39° 98° (E) 08:38:52 437.445
AO-85 13 Feb 08:41:21 08:46:15 37° 114° (ESE) 08:51:17 145.980
CANX-2 13 Feb 08:47:11 08:51:08 36° 290° (WNW) 08:55:05 2200.000
CINEMA 3 13 Feb 08:49:12 08:53:12 46° 288° (WNW) 08:57:13 145.822/145.860
DELFI C3 13 Feb 08:50:25 08:53:37 22° 94° (E) 08:56:47 145.870
UNISAT 6 13 Feb 08:55:33 08:59:37 44° 72° (ENE) 09:03:41 437.425
POPSAT HIP 1 13 Feb 08:56:01 08:57:33 12° 61° (ENE) 08:59:04 437.405
HUMSAT D 13 Feb 08:57:53 08:59:18 11° 89° (E) 09:00:43 437.325/437.525
DUCHIFAT 1 13 Feb 08:58:09 08:59:34 11° 61° (ENE) 09:00:58 145.980
NANOSAT C BR1 13 Feb 08:58:10 08:59:50 12° 61° (ENE) 09:01:29 145.865
HO-68 13 Feb 09:01:53 09:08:54 57° 293° (WNW) 09:15:53 435.675
QB50P1 13 Feb 09:07:10 09:09:41 16° 63° (ENE) 09:12:12 145.935-145.965
ZACube-1 13 Feb 09:09:09 09:13:18 52° 100° (E) 09:17:32 437.345
COMPASS 1 13 Feb 09:15:52 09:19:44 35° 290° (WNW) 09:23:34 437.405
FUNcube-1 13 Feb 09:16:12 09:20:23 60° 100° (E) 09:24:39 145.935
GONETS M04 13 Feb 09:26:03 09:34:20 47° 287° (WNW) 09:42:43
AIST 1 13 Feb 09:26:52 09:30:58 39° 92° (E) 09:35:05
PCSat 13 Feb 09:28:42 09:33:54 50° 114° (ESE) 09:39:09 145.827
RS-15 13 Feb 09:31:23 09:40:51 34° 105° (ESE) 09:50:42 29.354- 29.394
SEEDS 13 Feb 09:37:43 09:40:31 17° 296° (WNW) 09:43:19 437.485
CUTE 1.7 + AOD 2 13 Feb 09:38:36 09:40:45 14° 298° (WNW) 09:42:55 437.475
ANTELSAT 13 Feb 09:40:21 09:44:35 60° 259° (WSW) 09:48:49 437.575/2403.000
AAUSAT CUBESAT 2 13 Feb 09:41:16 09:44:38 24° 293° (WNW) 09:47:59 437.432
BUGSAT 1 13 Feb 09:42:01 09:44:50 18° 65° (ENE) 09:47:39 437.445
Oscar 11 13 Feb 09:43:34 09:47:48 52° 287° (WNW) 09:52:01 145.826/435.025
TIGRISAT 13 Feb 09:45:57 09:50:09 54° 260° (W) 09:54:21 435.000
POLYITAN 1 13 Feb 09:59:26 10:03:33 54° 73° (ENE) 10:07:40 437.675
QB50P2 13 Feb 09:59:51 10:04:00 56° 73° (ENE) 10:08:09 145.880/145.840
UWE-3 13 Feb 10:00:19 10:04:02 31° 291° (WNW) 10:07:50 435.000/436.395/437.385
DX 1 13 Feb 10:03:14 10:04:51 12° 90° (E) 10:06:27 434.975-435.025
Cosmos 2499 13 Feb 10:03:47 10:12:25 58° 284° (WNW) 10:21:10 435.465 / 435.565
CUBEBUG 2 13 Feb 10:08:10 10:11:14 20° 294° (WNW) 10:14:21 437.445
AO-85 13 Feb 10:21:41 10:26:47 40° 314° (NW) 10:31:58 145.980
DELFI C3 13 Feb 10:24:58 10:28:34 31° 290° (WNW) 10:32:08 145.870
ESTCUBE 1 13 Feb 10:27:53 10:31:39 25° 94° (E) 10:35:22 437.505/2401.250
POPSAT HIP 1 13 Feb 10:28:32 10:32:45 74° 258° (WSW) 10:37:00 437.405
DUCHIFAT 1 13 Feb 10:30:29 10:34:41 75° 258° (WSW) 10:38:54 145.980
SO-50 13 Feb 10:30:46 10:33:31 15° 32° (NNE) 10:36:14 436.795
NANOSAT C BR1 13 Feb 10:30:48 10:35:01 71° 259° (W) 10:39:14 145.865
HUMSAT D 13 Feb 10:31:12 10:35:21 65° 285° (WNW) 10:39:32 437.325/437.525
UNISAT 6 13 Feb 10:33:45 10:36:35 17° 268° (W) 10:39:24 437.425
QB50P1 13 Feb 10:40:56 10:45:04 52° 260° (W) 10:49:13 145.935-145.965
DANDE 13 Feb 10:43:21 10:46:48 14° 53° (NE) 10:49:52 436.750
JAS-2 13 Feb 10:43:39 10:47:38 16° 56° (NE) 10:51:25 435.910
ZACube-1 13 Feb 10:46:39 10:49:14 16° 296° (WNW) 10:51:49 437.345
HO-68 13 Feb 10:52:20 10:55:07 13° 314° (NW) 10:57:53 435.675
FUNcube-1 13 Feb 10:53:58 10:56:13 14° 297° (WNW) 10:58:28 145.935
AIST 1 13 Feb 11:05:30 11:08:44 20° 289° (WNW) 11:11:59
VELOX 1 13 Feb 11:09:20 11:13:43 57° 101° (E) 11:18:02 145.980
PCSat 13 Feb 11:12:52 11:17:33 29° 314° (NW) 11:22:16 145.827
BUGSAT 1 13 Feb 11:15:55 11:19:55 43° 261° (W) 11:23:54 437.445
UKube-1 13 Feb 11:18:11 11:22:29 65° 102° (ESE) 11:26:46 .
CUSAT 1 13 Feb 11:19:16 11:24:26 36° 69° (ENE) 11:28:23 437.405
SPROUT 13 Feb 11:21:18 11:24:48 24° 94° (E) 11:28:15 437.525
50 SAT 13 Feb 11:25:47 11:29:34 66° 286° (WNW) 11:33:22 437.505
AISAT 13 Feb 11:26:43 11:31:08 88° 289° (WNW) 11:35:32 437.250
CUBEBUG 1 13 Feb 11:35:10 11:39:34 87° 279° (W) 11:43:53 437.445
DX 1 13 Feb 11:37:10 11:41:30 67° 286° (WNW) 11:45:48 434.975-435.025
POLYITAN 1 13 Feb 11:37:30 11:39:42 14° 269° (W) 11:41:54 437.675
QB50P2 13 Feb 11:38:06 11:40:10 13° 270° (W) 11:42:15 145.880/145.840
RS-15 13 Feb 11:41:03 11:52:14 74° 308° (NW) 12:04:08 29.354- 29.394
Oscar 19 13 Feb 11:45:59 11:50:52 44° 69° (ENE) 11:55:45 437.125/150
Cosmos 2499 13 Feb 12:03:57 12:07:45 13° 307° (NW) 12:11:32 435.465 / 435.565
ESTCUBE 1 13 Feb 12:04:24 12:08:30 34° 292° (WNW) 12:12:35 437.505/2401.250
AO-85 13 Feb 12:06:39 12:08:50 12° 335° (NNW) 12:11:02 145.980
SO-50 13 Feb 12:10:08 12:14:58 67° 53° (NE) 12:19:38 436.795
YUBILEINY 13 Feb 12:12:09 12:19:16 26° 64° (ENE) 12:26:20 435.215
AO-7 13 Feb 12:18:06 12:22:53 17° 44° (NE) 12:27:41 29.400- 29.500
JAS-2 13 Feb 12:24:16 12:31:46 74° 73° (ENE) 12:38:32 435.910
DANDE 13 Feb 12:24:33 12:31:23 81° 78° (ENE) 12:36:25 436.750
Cosmos 2491 13 Feb 12:26:56 12:29:39 12° 71° (ENE) 12:32:22 435.465 / 435.565
VELOX 1 13 Feb 12:47:06 12:49:44 16° 298° (WNW) 12:52:21 145.980
Gurwin Techsat 1B 13 Feb 12:48:03 12:53:16 62° 72° (ENE) 12:58:31 435.225
TISAT 1 13 Feb 12:50:33 12:54:45 84° 103° (ESE) 12:58:56 437.305
UKube-1 13 Feb 12:55:50 12:58:02 14° 299° (WNW) 13:00:13 .
SPROUT 13 Feb 12:57:01 13:00:48 31° 291° (WNW) 13:04:33 437.525
CUSAT 1 13 Feb 13:02:09 13:06:17 23° 277° (W) 13:09:38 437.405
ITAMSAT 1 13 Feb 13:03:22 13:08:17 46° 69° (ENE) 13:13:16 435.822/435.867
AISAT 13 Feb 13:06:20 13:06:54 10° 302° (WNW) 13:07:29 437.250
SWISSCUBE 13 Feb 13:06:35 13:10:33 25° 95° (E) 13:14:31 437.505
Cosmos 2504 13 Feb 13:14:31 13:18:26 14° 53° (NE) 13:22:15 435.465 / 435.565
Oscar 19 13 Feb 13:26:10 13:30:22 25° 266° (W) 13:34:34 437.125/150
ITUPSAT 1 13 Feb 13:45:01 13:49:46 53° 101° (E) 13:54:28 437.325
M-CUBED/EXP-1 PRIME 13 Feb 13:47:26 13:49:04 13° 60° (ENE) 13:50:40 437.505
BEESAT 13 Feb 13:50:49 13:55:35 62° 101° (ESE) 14:00:20 436.000
SO-50 13 Feb 13:52:00 13:54:53 16° 251° (WSW) 13:57:43 436.795
AUBIESAT-1 13 Feb 13:53:42 13:55:15 13° 59° (ENE) 13:56:46 437.475
RS-15 13 Feb 13:57:13 14:07:09 32° 338° (NNW) 14:17:34 29.354- 29.394
AO-7 13 Feb 14:05:53 14:14:06 64° 66° (ENE) 14:22:20 29.400- 29.500
YUBILEINY 13 Feb 14:08:10 14:17:00 75° 266° (W) 14:25:45 435.215
DANDE 13 Feb 14:09:41 14:12:55 14° 284° (WNW) 14:15:46 436.750
JAS-2 13 Feb 14:11:37 14:17:13 23° 268° (W) 14:22:29 435.910
Cosmos 2491 13 Feb 14:16:03 14:24:37 65° 92° (E) 14:33:12 435.465 / 435.565
ISS 13 Feb 14:26:05 14:29:19 70° 146° (SE) 14:32:34 145.825
KKS-1 13 Feb 14:26:44 14:30:04 21° 93° (E) 14:33:24 437.445
TISAT 1 13 Feb 14:29:17 14:29:46 10° 301° (WNW) 14:30:16 437.305
Gurwin Techsat 1B 13 Feb 14:30:04 14:33:38 18° 269° (W) 14:37:14 435.225
ITAMSAT 1 13 Feb 14:43:51 14:47:58 24° 266° (W) 14:52:08 435.822/435.867
SWISSCUBE 13 Feb 14:44:00 14:48:26 38° 292° (WNW) 14:52:51 437.505
MOZHAYETS 4 13 Feb 14:49:42 14:52:32 16° 90° (E) 14:55:21
HORYU 2 13 Feb 14:52:42 14:56:53 43° 70° (ENE) 15:01:04 437.375
Cosmos 2504 13 Feb 15:05:26 15:13:58 63° 77° (ENE) 15:21:52 435.465 / 435.565
M-CUBED/EXP-1 PRIME 13 Feb 15:20:04 15:23:27 42° 255° (WSW) 15:26:41 437.505
ITUPSAT 1 13 Feb 15:23:48 15:27:13 19° 298° (WNW) 15:30:36 437.325
AUBIESAT-1 13 Feb 15:26:09 15:29:32 44° 254° (WSW) 15:32:48 437.475
Cubesat XI-IV 13 Feb 15:29:10 15:31:00 12° 55° (NE) 15:32:50 437.490
BEESAT 13 Feb 15:29:51 15:32:53 17° 299° (WNW) 15:35:55 436.000
AO-85 13 Feb 15:32:53 15:35:10 13° 25° (NNE) 15:37:24 145.980
STARS 13 Feb 15:34:31 15:38:50 58° 101° (E) 15:43:08 437.465
BEESAT 3 13 Feb 15:46:57 15:50:50 56° 120° (ESE) 15:54:46 437.485
AO-7 13 Feb 16:00:14 16:07:21 31° 265° (W) 16:14:32 29.400- 29.500
KKS-1 13 Feb 16:02:40 16:06:48 39° 290° (WNW) 16:10:55 437.445
ISS 13 Feb 16:03:09 16:06:00 27° 344° (NNW) 16:08:51 145.825
YUBILEINY 13 Feb 16:07:46 16:12:09 15° 287° (WNW) 16:16:32 435.215
BRITE-PL 13 Feb 16:09:47 16:12:55 15° 60° (ENE) 16:16:00 437.365/2234.400
RS-15 13 Feb 16:14:44 16:24:35 28° 13° (NNE) 16:34:42 29.354- 29.394
Cosmos 2491 13 Feb 16:14:44 16:22:06 30° 294° (WNW) 16:29:31 435.465 / 435.565
BEESAT 2 13 Feb 16:18:29 16:22:30 79° 123° (ESE) 16:26:33 435.950
O/OREOS (USA 219) 13 Feb 16:21:33 16:26:07 60° 64° (ENE) 16:30:39 437.305
MOZHAYETS 4 13 Feb 16:25:30 16:30:03 56° 287° (WNW) 16:34:36
HORYU 2 13 Feb 16:30:32 16:33:39 19° 267° (W) 16:36:47 437.375
PCSat 13 Feb 16:33:23 16:35:48 13° 32° (NNE) 16:38:11 145.827
CUTE-I 13 Feb 16:49:54 16:55:06 56° 71° (ENE) 17:00:21 437.470
GOMX 1 13 Feb 16:54:00 16:57:34 19° 64° (ENE) 17:01:01 467.674
Cosmos 2504 13 Feb 16:59:44 17:06:39 29° 279° (W) 17:13:13 435.465 / 435.565
Cubesat XI-IV 13 Feb 17:04:50 17:10:09 75° 73° (ENE) 17:15:31 437.490
AIST 2 13 Feb 17:08:46 17:12:19 28° 115° (ESE) 17:15:53 435.215
AO-85 13 Feb 17:12:05 17:17:07 45° 48° (NE) 17:21:44 145.980
STARS 13 Feb 17:12:13 17:14:45 15° 298° (WNW) 17:17:18 437.465
CUBESAT XI-V 13 Feb 17:17:24 17:22:02 55° 100° (E) 17:26:36 437.345
BEESAT 3 13 Feb 17:26:04 17:28:56 19° 319° (NW) 17:31:47 437.485
LilacSat-2 13 Feb 17:27:07 17:30:55 73° 259° (W) 17:34:43 437.200
GONETS M04 13 Feb 17:38:16 17:44:44 22° 61° (ENE) 17:51:10
ISS 13 Feb 17:40:39 17:43:10 20° 4° (N) 17:45:40 145.825
BRITE-PL 13 Feb 17:45:02 17:50:44 87° 260° (W) 17:56:12 437.365/2234.400
HO-68 13 Feb 17:45:18 17:51:05 27° 57° (ENE) 17:56:53 435.675
DOVE 4 13 Feb 17:51:13 17:55:33 31° 69° (ENE) 17:59:42 437.250
BEESAT 2 13 Feb 17:58:29 18:00:54 15° 322° (NW) 18:03:20 435.950
STRAND 1 13 Feb 18:01:08 18:04:56 20° 92° (E) 18:08:43 437.568
O/OREOS (USA 219) 13 Feb 18:02:26 18:05:00 15° 261° (W) 18:07:34 437.305
Cosmos 2499 13 Feb 18:03:52 18:07:06 12° 52° (NE) 18:10:14 435.465 / 435.565
CANX-2 13 Feb 18:06:26 18:09:21 19° 65° (ENE) 18:12:18 2200.000
PCSat 13 Feb 18:15:07 18:20:28 54° 54° (NE) 18:25:46 145.827
CINEMA 3 13 Feb 18:16:13 18:19:21 19° 65° (ENE) 18:22:23 145.822/145.860
RS-15 13 Feb 18:28:36 18:40:30 57° 45° (NE) 18:52:35 29.354- 29.394
GOMX 1 13 Feb 18:29:56 18:35:14 63° 259° (W) 18:40:16 467.674
CUTE-I 13 Feb 18:31:39 18:35:30 20° 268° (W) 18:39:23 437.470
COMPASS 1 13 Feb 18:33:28 18:36:17 18° 65° (ENE) 18:39:07 437.405
PRISM 13 Feb 18:39:38 18:41:23 12° 90° (E) 18:43:07 437.425
AIST 2 13 Feb 18:46:56 18:50:44 33° 313° (NW) 18:54:32 435.215
Cubesat XI-IV 13 Feb 18:47:54 18:50:49 15° 271° (W) 18:53:43 437.490
AO-85 13 Feb 18:53:08 18:57:22 27° 249° (WSW) 19:01:18 145.980
SEEDS 13 Feb 18:54:00 18:57:52 38° 71° (ENE) 19:01:48 437.485
CUTE 1.7 + AOD 2 13 Feb 18:54:54 18:58:59 52° 73° (ENE) 19:03:07 437.475
CUBESAT XI-V 13 Feb 18:55:50 18:59:00 18° 297° (WNW) 19:02:07 437.345
AAUSAT CUBESAT 2 13 Feb 18:57:18 19:00:44 26° 68° (ENE) 19:04:11 437.432
Oscar 11 13 Feb 19:05:22 19:07:47 15° 63° (ENE) 19:10:13 145.826/435.025
ISS 13 Feb 19:17:06 19:20:12 41° 24° (NNE) 19:23:18 145.825
UWE-3 13 Feb 19:22:44 19:26:05 23° 67° (ENE) 19:29:23 435.000/436.395/437.385
BRITE-PL 13 Feb 19:27:31 19:29:49 12° 273° (W) 19:32:05 437.365/2234.400
DOVE 4 13 Feb 19:28:47 19:33:12 31° 264° (W) 19:37:26 437.250
CUBEBUG 2 13 Feb 19:30:21 19:34:17 38° 71° (ENE) 19:38:10 437.445
HO-68 13 Feb 19:31:07 19:38:15 67° 257° (WSW) 19:45:26 435.675
GONETS M04 13 Feb 19:33:56 19:42:48 88° 263° (W) 19:51:39
AIST 1 13 Feb 19:34:15 19:35:55 12° 66° (ENE) 19:37:35
DELFI C3 13 Feb 19:38:42 19:41:15 17° 64° (ENE) 19:43:48 145.870
STRAND 1 13 Feb 19:39:23 19:44:25 52° 289° (WNW) 19:49:24 437.568
CANX-2 13 Feb 19:40:55 19:44:55 42° 262° (W) 19:48:58 2200.000
CINEMA 3 13 Feb 19:51:51 19:56:13 45° 261° (W) 20:00:24 145.822/145.860
HUMSAT D 13 Feb 19:52:24 19:52:39 10° 60° (ENE) 19:52:54 437.325/437.525
Cosmos 2499 13 Feb 19:54:09 20:02:25 60° 77° (ENE) 20:10:00 435.465 / 435.565
PCSat 13 Feb 19:59:15 20:03:30 24° 252° (WSW) 20:07:43 145.827
ZACube-1 13 Feb 20:06:17 20:10:17 47° 72° (ENE) 20:14:16 437.345
COMPASS 1 13 Feb 20:07:35 20:11:32 43° 262° (W) 20:15:33 437.405
PRISM 13 Feb 20:12:59 20:17:07 60° 286° (WNW) 20:21:11 437.425
FUNcube-1 13 Feb 20:13:00 20:17:04 53° 73° (ENE) 20:21:06 145.935
SEEDS 13 Feb 20:30:44 20:33:45 19° 268° (W) 20:36:48 437.485
AAUSAT CUBESAT 2 13 Feb 20:32:34 20:36:09 28° 265° (W) 20:39:47 437.432
CUTE 1.7 + AOD 2 13 Feb 20:32:50 20:35:10 14° 270° (W) 20:37:31 437.475
Oscar 11 13 Feb 20:39:13 20:43:27 58° 259° (W) 20:47:43 145.826/435.025
RS-15 13 Feb 20:41:28 20:53:03 53° 248° (WSW) 21:04:44 29.354- 29.394
AISAT 13 Feb 20:52:18 20:53:43 11° 59° (ENE) 20:55:08 437.250
ISS 13 Feb 20:53:41 20:56:34 30° 222° (SW) 20:59:27 145.825
UWE-3 13 Feb 20:58:39 21:02:25 31° 264° (W) 21:06:10 435.000/436.395/437.385
CUBEBUG 1 13 Feb 20:59:54 21:00:50 11° 59° (ENE) 21:01:46 437.445
DX 1 13 Feb 21:00:03 21:02:17 14° 61° (ENE) 21:04:31 434.975-435.025
CUBEBUG 2 13 Feb 21:07:59 21:11:04 19° 267° (W) 21:14:07 437.445
AIST 1 13 Feb 21:09:44 21:14:03 67° 264° (W) 21:18:18
DELFI C3 13 Feb 21:12:01 21:15:49 43° 261° (W) 21:19:40 145.870
HUMSAT D 13 Feb 21:23:35 21:27:40 81° 259° (WSW) 21:31:46 437.325/437.525
HO-68 13 Feb 21:25:30 21:27:16 11° 275° (W) 21:29:02 435.675
ESTCUBE 1 13 Feb 21:28:40 21:32:30 28° 67° (ENE) 21:36:21 437.505/2401.250
ANTELSAT 13 Feb 21:30:52 21:34:28 24° 95° (E) 21:38:06 437.575/2403.000
GONETS M04 13 Feb 21:32:46 21:38:18 19° 284° (WNW) 21:43:50
TIGRISAT 13 Feb 21:36:09 21:39:50 26° 95° (E) 21:43:35 435.000
ZACube-1 13 Feb 21:44:22 21:46:50 15° 269° (W) 21:49:19 437.345
Cosmos 2499 13 Feb 21:48:08 21:54:53 29° 278° (W) 22:01:15 435.465 / 435.565
FUNcube-1 13 Feb 21:51:34 21:53:39 13° 270° (W) 21:55:44 145.935
50 SAT 13 Feb 22:06:54 22:10:34 70° 76° (ENE) 22:14:18 437.505
VELOX 1 13 Feb 22:07:39 22:12:02 60° 73° (ENE) 22:16:27 145.980
POPSAT HIP 1 13 Feb 22:13:15 22:15:52 16° 92° (E) 22:18:28 437.405
UKube-1 13 Feb 22:13:44 22:18:01 64° 73° (ENE) 22:22:20 .
DUCHIFAT 1 13 Feb 22:14:41 22:17:11 15° 92° (E) 22:19:41 145.980
NANOSAT C BR1 13 Feb 22:15:07 22:17:47 16° 92° (E) 22:20:27 145.865
SPROUT 13 Feb 22:16:30 22:19:52 23° 66° (ENE) 22:23:15 437.525
UNISAT 6 13 Feb 22:21:58 22:26:22 85° 105° (ESE) 22:30:50 437.425
QB50P1 13 Feb 22:24:57 22:28:14 22° 94° (E) 22:31:29 145.935-145.965
AISAT 13 Feb 22:25:04 22:29:32 85° 253° (WSW) 22:34:02 437.250
CUBEBUG 1 13 Feb 22:31:58 22:36:25 90° 14° (NNE) 22:40:53 437.445
DX 1 13 Feb 22:33:36 22:37:57 66° 257° (WSW) 22:42:20 434.975-435.025
BUGSAT 1 13 Feb 22:56:55 23:00:07 22° 94° (E) 23:03:18 437.445
BEESAT 2 13 Feb 22:59:36 23:01:03 12° 34° (NE) 23:02:31 435.950
